CW1852 Weather Reports


Display with metric or nautical units.
time (UTC)temp
F
wind
direction
speed
MPH
gust
MPH
rain 1hr
in
rain 24hr
in
rain mn
in
humidity
%
barometer
mb
20260503213203 51 345 7.0 13.0 0.00 0.22 0.22 68 1001.6
20260503212203 50 327 6.0 13.0 0.00 0.22 0.22 71 1001.6
20260503211203 49 329 4.0 12.0 0.00 0.22 0.22 74 1001.6
20260503210223 50 333 5.0 13.0 0.00 0.22 0.22 73 1001.7
20260503205203 50 322 5.0 12.0 0.00 0.22 0.22 77 1001.7
20260503204203 50 325 4.0 13.0 0.00 0.22 0.22 77 1001.7
20260503203203 49 346 4.0 13.0 0.00 0.22 0.22 77 1001.7
20260503202224 49 303 7.0 14.0 0.00 0.22 0.22 79 1001.8
20260503201202 48 305 6.0 14.0 0.00 0.22 0.22 81 1001.9
20260503200224 49 296 4.0 17.0 0.00 0.22 0.22 85 1001.9
20260503195224 47 342 4.0 9.0 0.00 0.22 0.22 83 1001.9
20260503194203 47 348 4.0 11.0 0.00 0.22 0.22 84 1002.1
20260503193203 47 285 2.0 13.0 0.00 0.22 0.22 88 1002.2
20260503192224 46 32 4.0 13.0 0.00 0.22 0.22 85 1002.2
20260503191203 46 24 4.0 14.0 0.00 0.22 0.22 88 1002.3
20260503190203 45 350 7.0 15.0 0.00 0.22 0.22 89 1002.4
20260503185203 44 18 5.0 12.0 0.01 0.22 0.22 90 1002.5
20260503184202 44 347 6.0 18.0 0.01 0.22 0.22 91 1002.6
20260503182245 43 352 8.0 19.0 0.01 0.22 0.22 92 1002.4
20260503181203 44 12 5.0 16.0 0.01 0.22 0.22 93 1002.5
20260503180202 44 2 5.0 14.0 0.01 0.22 0.22 93 1002.5
20260503175224 44 349 6.0 16.0 0.00 0.21 0.21 93 1002.5
20260503174203 43 347 6.0 14.0 0.00 0.21 0.21 92 1002.4
20260503173202 44 349 3.0 17.0 0.00 0.21 0.21 94 1002.4
20260503172203 43 353 6.0 14.0 0.00 0.21 0.21 93 1002.4
20260503171203 43 350 6.0 14.0 0.00 0.21 0.21 93 1002.3
20260503170203 43 359 7.0 18.0 0.00 0.21 0.21 93 1002.1
20260503160203 42 12 9.0 18.0 0.00 0.21 0.21 94 1002.2
20260503150203 43 5 4.0 14.0 0.00 0.19 0.18 94 1002.8
20260503140203 44 23 4.0 9.0 0.00 0.20 0.17 95 1003.0
20260503131203 44 20 2.0 8.0 0.00 0.20 0.17 96 1003.5
20260503130245 44 357 5.0 12.0 0.00 0.20 0.17 96 1003.6
20260503120202 43 343 2.0 6.0 0.00 0.16 0.13 96 1004.6
20260503110202 43 357 1.0 3.0 0.00 0.12 0.09 96 1004.9
20260503100203 43 32 2.0 6.0 0.00 0.12 0.09 96 1005.1
20260503090203 44 338 2.0 8.0 0.00 0.12 0.09 96 1005.6
20260503081203 44 320 1.0 3.0 0.02 0.09 0.06 96 1006.4
20260503080202 44 140 1.0 2.0 0.01 0.08 0.05 96 1006.5
20260503072203 44 137 0.0 0.0 0.02 0.05 0.02 95 1006.6
20260503071202 44 137 0.0 1.0 0.01 0.04 0.01 95 1006.8
20260503070203 44 137 1.0 2.0 0.01 0.04 0.01 95 1006.8
20260503060203 44 137 1.0 2.0 0.00 0.03 0.00 95 1007.3
20260503054203 44 159 1.0 2.0 0.00 0.03 0.00 95 1007.7
20260503053202 44 159 0.0 0.0 0.00 0.03 0.00 95 1007.7
20260503052203 44 159 0.0 0.0 0.00 0.03 0.00 95 1007.8
20260503051202 44 159 0.0 0.0 0.00 0.03 0.00 95 1008.0
20260503050203 44 159 0.0 0.0 0.00 0.03 0.00 95 1008.1
20260503045202 44 159 0.0 0.0 0.00 0.03 0.00 95 1008.1
20260503044203 44 159 0.0 0.0 0.00 0.03 0.00 94 1008.2
20260503043202 44 159 0.0 0.0 0.00 0.03 0.00 94 1008.4
20260503042203 44 159 0.0 0.0 0.00 0.03 0.00 94 1008.6
20260503041202 44 159 0.0 0.0 0.00 0.03 0.00 94 1008.7
20260503040203 44 159 0.0 0.0 0.00 0.03 0.00 94 1009.0
20260503035203 44 159 0.0 2.0 0.00 0.03 0.03 94 1009.1
20260503034203 44 159 1.0 2.0 0.00 0.03 0.03 94 1009.2
20260503033203 44 159 1.0 2.0 0.00 0.03 0.03 94 1009.1
20260503032203 44 159 1.0 3.0 0.00 0.03 0.03 94 1009.2
20260503031224 44 159 2.0 3.0 0.00 0.03 0.03 94 1009.3
20260503030225 44 159 2.0 5.0 0.00 0.03 0.03 94 1009.5
20260503025203 44 158 1.0 5.0 0.00 0.03 0.03 94 1009.6
20260503024203 44 159 2.0 5.0 0.00 0.03 0.03 94 1009.7
20260503023203 43 169 2.0 4.0 0.00 0.03 0.03 94 1009.7
20260503022202 43 179 2.0 5.0 0.00 0.03 0.03 94 1009.7
20260503021203 43 186 1.0 6.0 0.00 0.03 0.03 94 1009.9
20260503020225 43 155 3.0 5.0 0.00 0.03 0.03 94 1010.0
20260503015223 43 166 2.0 3.0 0.00 0.03 0.03 95 1010.2
20260503014203 43 167 3.0 5.0 0.00 0.03 0.03 95 1010.2
20260503013202 43 81 0.0 0.0 0.00 0.03 0.03 94 1010.4
20260503012203 43 81 0.0 2.0 0.00 0.03 0.03 94 1010.2
20260503011224 44 81 0.0 2.0 0.00 0.03 0.03 94 1010.3
20260503010202 43 81 0.0 1.0 0.00 0.03 0.03 95 1010.3
20260503005203 43 81 0.0 1.0 0.00 0.03 0.03 95 1010.3
20260503004202 43 81 1.0 2.0 0.00 0.03 0.03 94 1010.2
20260503003203 42 81 0.0 2.0 0.00 0.03 0.03 94 1010.3
20260503002202 43 81 0.0 2.0 0.00 0.03 0.03 94 1010.2
20260503001203 43 81 1.0 2.0 0.00 0.03 0.03 94 1010.1
20260503000204 44 81 0.0 1.0 0.00 0.03 0.03 93 1010.1
20260502235202 44 81 0.0 2.0 0.00 0.03 0.03 93 1010.1
20260502234203 45 81 1.0 3.0 0.00 0.03 0.03 94 1010.0
20260502233203 45 81 1.0 2.0 0.00 0.03 0.03 94 1010.0
20260502232203 45 81 1.0 2.0 0.00 0.03 0.03 94 1010.1
20260502231203 45 81 0.0 1.0 0.00 0.03 0.03 94 1010.2
20260502230224 45 81 0.0 3.0 0.00 0.03 0.03 94 1010.2
20260502225203 45 81 2.0 3.0 0.00 0.03 0.03 94 1010.2
20260502224202 45 81 1.0 3.0 0.00 0.03 0.03 94 1010.2
20260502223224 45 81 0.0 4.0 0.00 0.03 0.03 94 1010.1
20260502222202 45 83 1.0 3.0 0.00 0.03 0.03 94 1010.1
20260502221203 45 83 1.0 4.0 0.00 0.03 0.03 94 1010.1
20260502220203 46 124 1.0 3.0 0.00 0.03 0.03 94 1010.1
20260502215203 46 124 0.0 3.0 0.00 0.03 0.03 94 1010.1
20260502214203 45 135 2.0 3.0 0.00 0.03 0.03 94 1010.1